Time,TemperatureF,DewpointF,PressureIn,WindDirection,WindDirectionDegrees,WindSpeedMPH,WindSpeedGustMPH,Humidity,HourlyPrecipIn,Conditions,Clouds,dailyrainin,SoftwareType,DateUTC
2013-05-24 00:00:00,44.8,35.2,29.98,WNW,292,2.3,2.3,69,0.00,CLR,,0.00,WeatherDisplay:10.37,2013-05-23 23:00:00,
2013-05-24 00:05:00,44.9,35.7,29.98,WNW,297,3.5,3.5,70,0.00,CLR,,0.00,WeatherDisplay:10.37,2013-05-23 23:05:00,
2013-05-24 00:10:00,44.9,36.1,29.98,WNW,300,5.8,5.8,71,0.00,CLR,,0.00,WeatherDisplay:10.37,2013-05-23 23:10:00,
2013-05-24 00:15:00,45.0,36.2,29.98,WNW,300,5.8,5.8,71,0.00,CLR,,0.00,WeatherDisplay:10.37,2013-05-23 23:15:00,
2013-05-24 00:20:00,44.9,36.8,29.98,WNW,298,5.0,5.0,73,0.00,CLR,,0.00,WeatherDisplay:10.37,2013-05-23 23:20:00,
2013-05-24 00:25:00,44.7,36.6,29.97,WNW,298,5.8,5.8,73,0.00,CLR,,0.00,WeatherDisplay:10.37,2013-05-23 23:25:00,
2013-05-24 00:30:00,44.5,36.0,29.98,NW,318,8.1,8.1,72,0.00,CLR,,0.00,WeatherDisplay:10.37,2013-05-23 23:30:00,
2013-05-24 00:35:00,44.2,36.1,29.98,WNW,290,3.5,3.5,73,0.00,CLR,,0.00,WeatherDisplay:10.37,2013-05-23 23:35:00,
2013-05-24 00:40:00,44.1,36.0,29.97,NW,321,3.5,3.5,73,0.00,CLR,,0.00,WeatherDisplay:10.37,2013-05-23 23:40:00,
2013-05-24 00:45:00,44.1,36.0,29.98,WNW,300,1.2,1.2,73,0.00,CLR,,0.00,WeatherDisplay:10.37,2013-05-23 23:45:00,
2013-05-24 00:50:00,44.0,36.2,29.98,North,354,2.3,2.3,74,0.00,CLR,,0.00,WeatherDisplay:10.37,2013-05-23 23:50:00,
2013-05-24 00:56:00,43.5,35.8,29.98,NNW,348,2.3,2.3,74,0.00,CLR,,0.00,WeatherDisplay:10.37,2013-05-23 23:56:00,
2013-05-24 01:01:00,43.3,35.6,29.98,NW,323,1.2,1.2,74,0.00,CLR,,0.00,WeatherDisplay:10.37,2013-05-24 00:01:00,
2013-05-24 01:06:00,43.1,35.0,29.98,NNW,337,3.5,3.5,73,0.00,CLR,,0.00,WeatherDisplay:10.37,2013-05-24 00:06:00,
2013-05-24 01:11:00,43.3,34.5,29.98,NW,311,3.5,3.5,71,0.00,CLR,,0.00,WeatherDisplay:10.37,2013-05-24 00:11:00,
2013-05-24 01:16:00,43.5,34.4,29.98,NW,310,4.0,4.0,70,0.00,CLR,,0.00,WeatherDisplay:10.37,2013-05-24 00:16:00,
2013-05-24 01:21:00,43.9,34.4,29.98,NNW,330,2.3,2.3,69,0.00,CLR,,0.00,WeatherDisplay:10.37,2013-05-24 00:21:00,
2013-05-24 01:26:00,44.5,33.8,29.98,WNW,282,2.3,0.0,66,0.00,CLR,,0.00,WeatherDisplay:10.37,2013-05-24 00:26:00,
2013-05-24 01:31:00,45.0,33.9,29.98,NW,316,13.8,13.8,65,0.00,CLR,,0.00,WeatherDisplay:10.37,2013-05-24 00:31:00,
2013-05-24 01:36:00,45.3,34.2,29.98,WNW,303,15.0,15.0,65,0.00,CLR,,0.00,WeatherDisplay:10.37,2013-05-24 00:36:00,
2013-05-24 01:41:00,45.5,33.2,29.98,North,354,8.1,8.1,62,0.00,CLR,,0.00,WeatherDisplay:10.37,2013-05-24 00:41:00,
2013-05-24 01:46:00,45.5,33.2,29.99,North,6,8.1,8.1,62,0.00,CLR,,0.00,WeatherDisplay:10.37,2013-05-24 00:46:00,
2013-05-24 01:51:00,45.6,32.9,29.98,NW,304,3.5,3.5,61,0.00,CLR,,0.00,WeatherDisplay:10.37,2013-05-24 00:51:00,
2013-05-24 01:56:00,45.5,33.2,29.98,NNE,29,6.9,6.9,62,0.00,CLR,,0.00,WeatherDisplay:10.37,2013-05-24 00:56:00,
2013-05-24 02:01:00,45.6,32.9,29.99,WNW,289,12.0,12.0,61,0.00,CLR,,0.00,WeatherDisplay:10.37,2013-05-24 01:01:00,
2013-05-24 02:06:00,45.5,32.8,29.98,NNE,18,6.9,6.9,61,0.00,CLR,,0.00,WeatherDisplay:10.37,2013-05-24 01:06:00,
2013-05-24 02:57:00,45.3,33.4,29.98,North,6,9.2,9.2,63,0.00,CLR,,0.00,WeatherDisplay:10.37,2013-05-24 01:57:00,
2013-05-24 03:02:00,45.4,33.5,29.98,NNW,343,4.6,4.6,63,0.00,CLR,,0.00,WeatherDisplay:10.37,2013-05-24 02:02:00,
2013-05-24 03:07:00,45.4,33.1,29.97,NNW,344,5.8,5.8,62,0.00,CLR,,0.00,WeatherDisplay:10.37,2013-05-24 02:07:00,
2013-05-24 03:12:00,45.5,33.2,29.97,WNW,295,5.8,5.8,62,0.00,CLR,,0.00,WeatherDisplay:10.37,2013-05-24 02:12:00,
2013-05-24 03:17:00,45.6,33.3,29.97,WNW,283,13.8,13.8,62,0.00,CLR,,0.00,WeatherDisplay:10.37,2013-05-24 02:17:00,
2013-05-24 03:22:00,45.8,33.5,29.98,NW,308,3.5,3.5,62,0.00,CLR,,0.00,WeatherDisplay:10.37,2013-05-24 02:22:00,
2013-05-24 03:27:00,45.8,33.9,29.98,WNW,302,6.9,6.9,63,0.00,CLR,,0.00,WeatherDisplay:10.37,2013-05-24 02:27:00,
2013-05-24 03:32:00,45.8,33.5,29.98,WNW,300,8.1,8.1,62,0.00,CLR,,0.00,WeatherDisplay:10.37,2013-05-24 02:32:00,
2013-05-24 03:37:00,45.8,33.9,29.98,NW,305,4.0,4.0,63,0.00,CLR,,0.00,WeatherDisplay:10.37,2013-05-24 02:37:00,
2013-05-24 03:42:00,45.8,33.9,29.99,NW,323,4.6,4.6,63,0.00,CLR,,0.00,WeatherDisplay:10.37,2013-05-24 02:42:00,
2013-05-24 03:47:00,45.7,33.8,29.99,NW,317,2.3,2.6,63,0.00,CLR,,0.00,WeatherDisplay:10.37,2013-05-24 02:47:00,
2013-05-24 03:52:00,45.7,33.8,29.99,NW,318,1.2,1.2,63,0.00,CLR,,0.00,WeatherDisplay:10.37,2013-05-24 02:52:00,
2013-05-24 03:57:00,45.7,33.8,29.99,NW,304,3.5,3.5,63,0.00,CLR,,0.00,WeatherDisplay:10.37,2013-05-24 02:57:00,
2013-05-24 04:02:00,45.7,33.8,29.99,NW,316,5.8,5.8,63,0.00,CLR,,0.00,WeatherDisplay:10.37,2013-05-24 03:02:00,
2013-05-24 04:07:00,45.7,34.2,29.99,NW,304,3.5,3.5,64,0.00,CLR,,0.00,WeatherDisplay:10.37,2013-05-24 03:07:00,
2013-05-24 04:12:00,45.8,34.3,29.99,NW,308,1.2,1.2,64,0.00,CLR,,0.00,WeatherDisplay:10.37,2013-05-24 03:12:00,
2013-05-24 04:17:00,45.7,34.2,29.99,NW,307,3.5,3.5,64,0.00,CLR,,0.00,WeatherDisplay:10.37,2013-05-24 03:17:00,
2013-05-24 04:22:00,45.6,34.5,29.99,WNW,284,3.5,3.5,65,0.00,CLR,,0.00,WeatherDisplay:10.37,2013-05-24 03:22:00,
2013-05-24 04:27:00,45.6,34.5,30.00,WNW,300,1.2,1.2,65,0.00,CLR,,0.00,WeatherDisplay:10.37,2013-05-24 03:27:00,
2013-05-24 04:32:00,45.5,34.8,29.99,WNW,286,2.3,2.3,66,0.00,CLR,,0.00,WeatherDisplay:10.37,2013-05-24 03:32:00,
2013-05-24 04:37:00,45.6,34.9,29.99,WNW,297,5.8,5.8,66,0.00,CLR,,0.00,WeatherDisplay:10.37,2013-05-24 03:37:00,
2013-05-24 04:42:00,45.7,35.0,29.99,WNW,290,8.1,8.1,66,0.00,CLR,,0.00,WeatherDisplay:10.37,2013-05-24 03:42:00,
2013-05-24 04:47:00,45.8,35.5,30.00,North,1,6.9,6.9,67,0.00,CLR,,0.00,WeatherDisplay:10.37,2013-05-24 03:47:00,
2013-05-24 04:52:00,45.8,35.1,29.99,NNW,337,4.6,4.6,66,0.00,CLR,,0.00,WeatherDisplay:10.37,2013-05-24 03:52:00,
2013-05-24 04:57:00,45.9,35.6,29.99,WNW,300,10.4,10.4,67,0.00,CLR,,0.00,WeatherDisplay:10.37,2013-05-24 03:57:00,
2013-05-24 05:01:00,46.0,35.7,29.99,NW,309,10.0,10.0,67,0.00,CLR,,0.00,WeatherDisplay:10.37,2013-05-24 04:01:00,
2013-05-24 05:06:00,45.9,35.6,29.99,NW,311,13.0,13.0,67,0.00,CLR,,0.00,WeatherDisplay:10.37,2013-05-24 04:06:00,
2013-05-24 05:11:00,46.0,36.0,29.99,West,279,12.7,12.7,68,0.00,CLR,,0.00,WeatherDisplay:10.37,2013-05-24 04:11:00,
2013-05-24 05:16:00,46.0,35.7,29.99,WNW,303,16.1,16.1,67,0.00,CLR,,0.00,WeatherDisplay:10.37,2013-05-24 04:16:00,
2013-05-24 05:21:00,46.0,36.4,29.99,West,264,15.0,15.0,69,0.00,CLR,,0.00,WeatherDisplay:10.37,2013-05-24 04:21:00,
2013-05-24 05:26:00,46.0,36.0,29.99,NW,304,11.5,11.5,68,0.00,CLR,,0.00,WeatherDisplay:10.37,2013-05-24 04:26:00,
2013-05-24 05:31:00,46.1,36.5,29.99,WNW,287,11.5,11.5,69,0.00,CLR,,0.00,WeatherDisplay:10.37,2013-05-24 04:31:00,
2013-05-24 05:36:00,46.3,36.3,29.99,WNW,297,9.2,9.2,68,0.00,CLR,,0.00,WeatherDisplay:10.37,2013-05-24 04:36:00,
2013-05-24 05:41:00,46.4,35.3,29.99,WSW,247,2.0,2.0,65,0.00,CLR,,0.00,WeatherDisplay:10.37,2013-05-24 04:41:00,
2013-05-24 05:46:00,46.6,35.1,29.99,West,274,1.2,1.2,64,0.00,CLR,,0.00,WeatherDisplay:10.37,2013-05-24 04:46:00,
2013-05-24 05:51:00,46.6,35.1,30.00,West,274,1.2,1.2,64,0.00,CLR,,0.00,WeatherDisplay:10.37,2013-05-24 04:51:00,
2013-05-24 05:56:00,46.7,35.2,30.00,NE,43,3.5,3.5,64,0.00,CLR,,0.00,WeatherDisplay:10.37,2013-05-24 04:56:00,
2013-05-24 06:01:00,46.7,35.9,30.00,WNW,295,1.2,1.2,66,0.00,CLR,,0.00,WeatherDisplay:10.37,2013-05-24 05:01:00,
2013-05-24 06:06:00,46.6,35.5,30.00,WNW,301,6.9,6.9,65,0.00,CLR,,0.00,WeatherDisplay:10.37,2013-05-24 05:06:00,
2013-05-24 06:11:00,46.6,35.5,30.00,WNW,294,5.8,5.8,65,0.00,CLR,,0.00,WeatherDisplay:10.37,2013-05-24 05:11:00,
2013-05-24 06:16:00,46.5,36.1,30.01,WNW,296,6.9,6.9,67,0.00,CLR,,0.00,WeatherDisplay:10.37,2013-05-24 05:16:00,
2013-05-24 06:21:00,46.5,36.1,30.01,WNW,300,4.6,4.6,67,0.00,CLR,,0.00,WeatherDisplay:10.37,2013-05-24 05:21:00,
2013-05-24 06:26:00,46.6,35.8,30.01,West,281,4.0,4.0,66,0.00,CLR,,0.00,WeatherDisplay:10.37,2013-05-24 05:26:00,
2013-05-24 06:31:00,46.7,36.7,30.00,West,269,7.0,7.0,68,0.00,CLR,,0.00,WeatherDisplay:10.37,2013-05-24 05:31:00,
2013-05-24 06:36:00,46.7,35.9,30.01,NW,304,9.2,9.2,66,0.00,CLR,,0.00,WeatherDisplay:10.37,2013-05-24 05:36:00,
2013-05-24 06:41:00,46.7,35.2,30.01,NNE,20,3.5,3.5,64,0.00,CLR,,0.00,WeatherDisplay:10.37,2013-05-24 05:41:00,
2013-05-24 06:46:00,47.1,35.9,30.01,WSW,242,3.5,3.5,65,0.00,CLR,,0.00,WeatherDisplay:10.37,2013-05-24 05:46:00,
2013-05-24 06:51:00,47.2,36.0,30.02,West,260,3.5,3.5,65,0.00,CLR,,0.00,WeatherDisplay:10.37,2013-05-24 05:51:00,
2013-05-24 06:56:00,47.3,36.1,30.02,SW,235,6.0,6.0,65,0.00,CLR,,0.00,WeatherDisplay:10.37,2013-05-24 05:56:00,
2013-05-24 07:01:00,47.5,35.9,30.02,WSW,254,4.6,4.6,64,0.00,CLR,,0.00,WeatherDisplay:10.37,2013-05-24 06:01:00,
2013-05-24 07:06:00,47.7,35.7,30.02,West,269,2.0,2.0,63,0.00,CLR,,0.00,WeatherDisplay:10.37,2013-05-24 06:06:00,
2013-05-24 07:11:00,48.2,35.8,30.02,West,266,9.2,9.2,62,0.00,CLR,,0.00,WeatherDisplay:10.37,2013-05-24 06:11:00,
2013-05-24 07:16:00,48.7,35.8,30.03,NW,307,5.8,5.8,61,0.00,CLR,,0.00,WeatherDisplay:10.37,2013-05-24 06:16:00,
2013-05-24 07:21:00,49.5,36.2,30.03,West,274,3.5,3.5,60,0.00,CLR,,0.00,WeatherDisplay:10.37,2013-05-24 06:21:00,
2013-05-24 07:26:00,50.5,37.5,30.04,ESE,110,2.3,2.3,61,0.00,CLR,,0.00,WeatherDisplay:10.37,2013-05-24 06:26:00,
2013-05-24 07:31:00,50.7,36.5,30.04,ESE,112,4.0,4.0,58,0.00,CLR,,0.00,WeatherDisplay:10.37,2013-05-24 06:31:00,
2013-05-24 07:36:00,51.1,37.7,30.04,NE,54,5.8,5.8,60,0.00,CLR,,0.00,WeatherDisplay:10.37,2013-05-24 06:36:00,
2013-05-24 07:41:00,51.0,36.3,30.04,WNW,291,3.0,3.0,57,0.00,CLR,,0.00,WeatherDisplay:10.37,2013-05-24 06:41:00,
2013-05-24 07:46:00,50.8,37.0,30.05,WNW,293,2.3,2.3,59,0.00,CLR,,0.00,WeatherDisplay:10.37,2013-05-24 06:46:00,
2013-05-24 07:51:00,50.9,37.1,30.05,SW,232,1.2,1.2,59,0.00,CLR,,0.00,WeatherDisplay:10.37,2013-05-24 06:51:00,
2013-05-24 07:56:00,50.6,36.4,30.05,NW,323,2.3,2.3,58,0.00,CLR,,0.00,WeatherDisplay:10.37,2013-05-24 06:56:00,
2013-05-24 08:01:00,50.6,36.4,30.05,WNW,303,10.4,10.4,58,0.00,CLR,,0.00,WeatherDisplay:10.37,2013-05-24 07:01:00,
2013-05-24 08:06:00,50.2,36.8,30.06,WNW,300,6.9,6.9,60,0.00,CLR,,0.00,WeatherDisplay:10.37,2013-05-24 07:06:00,
2013-05-24 08:11:00,49.9,37.4,30.06,WNW,300,9.0,9.0,62,0.00,CLR,,0.00,WeatherDisplay:10.37,2013-05-24 07:11:00,
2013-05-24 08:16:00,50.2,37.3,30.06,WNW,293,4.6,4.6,61,0.00,CLR,,0.00,WeatherDisplay:10.37,2013-05-24 07:16:00,
2013-05-24 08:21:00,50.5,37.1,30.06,NW,325,3.5,3.5,60,0.00,CLR,,0.00,WeatherDisplay:10.37,2013-05-24 07:21:00,
2013-05-24 08:26:00,51.2,37.4,30.06,North,1,12.7,12.7,59,0.00,CLR,,0.00,WeatherDisplay:10.37,2013-05-24 07:26:00,
2013-05-24 08:31:00,52.0,37.2,30.06,NNW,333,5.8,5.8,57,0.00,CLR,,0.00,WeatherDisplay:10.37,2013-05-24 07:31:00,
2013-05-24 08:36:00,52.3,37.5,30.06,NNE,22,6.0,6.0,57,0.00,CLR,,0.00,WeatherDisplay:10.37,2013-05-24 07:36:00,
2013-05-24 08:41:00,52.6,37.3,30.07,NNW,340,16.1,16.1,56,0.00,CLR,,0.00,WeatherDisplay:10.37,2013-05-24 07:41:00,
2013-05-24 08:46:00,52.6,37.3,30.07,NNW,345,9.2,9.2,56,0.00,CLR,,0.00,WeatherDisplay:10.37,2013-05-24 07:46:00,
2013-05-24 08:51:00,52.8,37.5,30.07,North,1,12.7,12.7,56,0.00,CLR,,0.00,WeatherDisplay:10.37,2013-05-24 07:51:00,
2013-05-24 08:56:00,52.9,38.1,30.07,NNW,340,5.8,5.8,57,0.00,CLR,,0.00,WeatherDisplay:10.37,2013-05-24 07:56:00,
2013-05-24 09:01:00,53.3,38.4,30.07,WNW,289,11.5,11.5,57,0.00,CLR,,0.00,WeatherDisplay:10.37,2013-05-24 08:01:00,
2013-05-24 09:06:00,52.7,37.9,30.08,NNE,27,5.0,5.0,57,0.00,CLR,,0.00,WeatherDisplay:10.37,2013-05-24 08:06:00,
2013-05-24 09:11:00,52.6,37.8,30.08,North,358,11.5,11.5,57,0.00,CLR,,0.00,WeatherDisplay:10.37,2013-05-24 08:11:00,
2013-05-24 09:16:00,53.0,37.7,30.08,NNE,25,11.5,11.5,56,0.00,CLR,,0.00,WeatherDisplay:10.37,2013-05-24 08:16:00,
2013-05-24 09:21:00,53.0,38.2,30.08,NNE,27,11.5,11.5,57,0.00,CLR,,0.00,WeatherDisplay:10.37,2013-05-24 08:21:00,
2013-05-24 09:26:00,52.9,37.2,30.08,NNW,348,19.6,19.6,55,0.00,CLR,,0.00,WeatherDisplay:10.37,2013-05-24 08:26:00,
2013-05-24 09:31:00,52.9,37.6,30.08,NNE,26,16.1,16.1,56,0.00,CLR,,0.00,WeatherDisplay:10.37,2013-05-24 08:31:00,
2013-05-24 09:36:00,53.1,37.8,30.08,ENE,64,10.4,10.4,56,0.00,CLR,,0.00,WeatherDisplay:10.37,2013-05-24 08:36:00,
2013-05-24 09:41:00,52.9,37.6,30.08,NE,54,12.7,12.7,56,0.00,CLR,,0.00,WeatherDisplay:10.37,2013-05-24 08:41:00,
2013-05-24 09:47:00,53.4,38.5,30.08,ENE,58,5.8,5.8,57,0.00,CLR,,0.00,WeatherDisplay:10.37,2013-05-24 08:47:00,
2013-05-24 09:52:00,54.1,38.3,30.08,WNW,300,9.2,9.2,55,0.00,CLR,,0.00,WeatherDisplay:10.37,2013-05-24 08:52:00,
2013-05-24 09:57:00,54.0,36.8,30.08,NE,55,10.4,10.4,52,0.00,CLR,,0.00,WeatherDisplay:10.37,2013-05-24 08:57:00,
2013-05-24 10:02:00,54.7,37.9,30.08,North,349,10.4,10.4,53,0.00,CLR,,0.00,WeatherDisplay:10.37,2013-05-24 09:02:00,
2013-05-24 10:07:00,54.6,37.3,30.09,ENE,57,10.4,10.4,52,0.00,CLR,,0.00,WeatherDisplay:10.37,2013-05-24 09:07:00,
2013-05-24 10:12:00,54.6,37.3,30.09,East,82,8.1,8.1,52,0.00,CLR,,0.00,WeatherDisplay:10.37,2013-05-24 09:12:00,
2013-05-24 10:17:00,55.1,37.8,30.10,North,3,9.2,9.2,52,0.00,CLR,,0.00,WeatherDisplay:10.37,2013-05-24 09:17:00,
2013-05-24 10:22:00,55.0,37.2,30.10,NNW,333,11.5,11.5,51,0.00,CLR,,0.00,WeatherDisplay:10.37,2013-05-24 09:22:00,
2013-05-24 10:27:00,54.6,37.8,30.10,NNE,22,8.1,8.1,53,0.00,CLR,,0.00,WeatherDisplay:10.37,2013-05-24 09:27:00,
2013-05-24 10:32:00,54.3,38.0,30.10,North,355,10.4,10.4,54,0.00,CLR,,0.00,WeatherDisplay:10.37,2013-05-24 09:32:00,
2013-05-24 10:37:00,54.5,37.7,30.10,North,3,13.8,13.8,53,0.00,CLR,,0.00,WeatherDisplay:10.37,2013-05-24 09:37:00,
2013-05-24 10:42:00,54.7,37.4,30.10,North,10,12.7,12.7,52,0.00,CLR,,0.00,WeatherDisplay:10.37,2013-05-24 09:42:00,
2013-05-24 10:47:00,55.1,37.8,30.10,ESE,122,11.5,11.5,52,0.00,CLR,,0.00,WeatherDisplay:10.37,2013-05-24 09:47:00,
2013-05-24 10:52:00,55.6,36.7,30.10,NNE,29,10.4,10.4,49,0.00,CLR,,0.00,WeatherDisplay:10.37,2013-05-24 09:52:00,
2013-05-24 10:57:00,55.8,36.9,30.10,NNW,341,4.6,4.6,49,0.00,CLR,,0.00,WeatherDisplay:10.37,2013-05-24 09:57:00,
2013-05-24 11:02:00,56.1,36.7,30.10,North,1,11.5,11.5,48,0.00,CLR,,0.00,WeatherDisplay:10.37,2013-05-24 10:02:00,
2013-05-24 11:07:00,56.2,36.8,30.11,North,10,9.2,9.2,48,0.00,CLR,,0.00,WeatherDisplay:10.37,2013-05-24 10:07:00,
2013-05-24 11:12:00,56.1,36.7,30.10,North,355,12.0,12.0,48,0.00,CLR,,0.00,WeatherDisplay:10.37,2013-05-24 10:12:00,
2013-05-24 11:17:00,56.2,37.3,30.10,NNE,23,11.5,11.5,49,0.00,CLR,,0.00,WeatherDisplay:10.37,2013-05-24 10:17:00,
2013-05-24 11:22:00,56.3,37.4,30.10,North,10,11.0,11.0,49,0.00,CLR,,0.00,WeatherDisplay:10.37,2013-05-24 10:22:00,
2013-05-24 11:27:00,56.3,36.3,30.10,NNE,30,11.5,11.5,47,0.00,CLR,,0.00,WeatherDisplay:10.37,2013-05-24 10:27:00,
2013-05-24 11:32:00,56.1,36.7,30.10,ENE,62,12.0,12.0,48,0.00,CLR,,0.00,WeatherDisplay:10.37,2013-05-24 10:32:00,
2013-05-24 11:37:00,56.1,36.1,30.11,North,354,11.5,11.5,47,0.00,CLR,,0.00,WeatherDisplay:10.37,2013-05-24 10:37:00,
2013-05-24 11:42:00,56.2,36.8,30.11,NNE,16,9.2,9.2,48,0.00,CLR,,0.00,WeatherDisplay:10.37,2013-05-24 10:42:00,
2013-05-24 11:47:00,56.3,35.8,30.11,North,3,15.0,15.0,46,0.00,CLR,,0.00,WeatherDisplay:10.37,2013-05-24 10:47:00,
2013-05-24 11:52:00,56.5,37.0,30.11,ENE,58,8.1,8.1,48,0.00,CLR,,0.00,WeatherDisplay:10.37,2013-05-24 10:52:00,
2013-05-24 11:57:00,56.3,37.4,30.11,NE,54,11.5,11.5,49,0.00,CLR,,0.00,WeatherDisplay:10.37,2013-05-24 10:57:00,
2013-05-24 12:02:00,57.1,36.5,30.11,NE,36,4.6,4.6,46,0.00,CLR,,0.00,WeatherDisplay:10.37,2013-05-24 11:02:00,
2013-05-24 12:07:00,56.9,36.3,30.11,ENE,71,13.0,13.0,46,0.00,CLR,,0.00,WeatherDisplay:10.37,2013-05-24 11:07:00,
2013-05-24 12:12:00,56.0,36.6,30.11,East,84,14.0,14.0,48,0.00,CLR,,0.00,WeatherDisplay:10.37,2013-05-24 11:12:00,
2013-05-24 12:17:00,56.3,38.4,30.11,ENE,67,12.0,12.0,51,0.00,CLR,,0.00,WeatherDisplay:10.37,2013-05-24 11:17:00,
2013-05-24 12:22:00,56.5,37.6,30.10,East,82,15.0,15.0,49,0.00,CLR,,0.00,WeatherDisplay:10.37,2013-05-24 11:22:00,
2013-05-24 12:27:00,56.2,37.3,30.11,East,84,19.6,19.6,49,0.00,CLR,,0.00,WeatherDisplay:10.37,2013-05-24 11:27:00,
2013-05-24 12:32:00,55.9,37.0,30.10,NE,53,13.0,13.0,49,0.00,CLR,,0.00,WeatherDisplay:10.37,2013-05-24 11:32:00,
2013-05-24 12:37:00,57.1,37.0,30.11,ENE,75,5.0,5.0,47,0.00,CLR,,0.00,WeatherDisplay:10.37,2013-05-24 11:37:00,
2013-05-24 12:42:00,56.5,36.5,30.11,East,96,12.7,12.7,47,0.00,CLR,,0.00,WeatherDisplay:10.37,2013-05-24 11:42:00,
2013-05-24 12:47:00,56.3,37.4,30.11,ENE,63,9.2,9.2,49,0.00,CLR,,0.00,WeatherDisplay:10.37,2013-05-24 11:47:00,
2013-05-24 12:52:00,57.6,37.5,30.11,ENE,70,9.2,9.2,47,0.00,CLR,,0.00,WeatherDisplay:10.37,2013-05-24 11:52:00,
2013-05-24 12:57:00,57.8,36.0,30.11,East,82,11.5,11.5,44,0.00,CLR,,0.00,WeatherDisplay:10.37,2013-05-24 11:57:00,
2013-05-24 13:02:00,58.0,35.6,30.10,East,82,11.5,11.5,43,0.00,CLR,,0.00,WeatherDisplay:10.37,2013-05-24 12:02:00,
2013-05-24 13:07:00,58.3,36.5,30.10,ENE,64,11.5,11.5,44,0.00,CLR,,0.00,WeatherDisplay:10.37,2013-05-24 12:07:00,
2013-05-24 13:12:00,57.7,36.5,30.11,NNE,16,12.7,12.7,45,0.00,CLR,,0.00,WeatherDisplay:10.37,2013-05-24 12:12:00,
2013-05-24 13:17:00,57.5,37.9,30.11,East,89,11.5,11.5,48,0.00,CLR,,0.00,WeatherDisplay:10.37,2013-05-24 12:17:00,
2013-05-24 13:22:00,57.3,37.8,30.11,NNE,23,9.2,9.2,48,0.00,CLR,,0.00,WeatherDisplay:10.37,2013-05-24 12:22:00,
2013-05-24 13:27:00,57.8,37.1,30.11,ENE,61,11.5,11.5,46,0.00,CLR,,0.00,WeatherDisplay:10.37,2013-05-24 12:27:00,
2013-05-24 13:32:00,58.2,36.4,30.11,WNW,298,10.4,10.4,44,0.00,CLR,,0.00,WeatherDisplay:10.37,2013-05-24 12:32:00,
2013-05-24 13:37:00,58.3,36.5,30.11,ENE,77,16.1,16.1,44,0.00,CLR,,0.00,WeatherDisplay:10.37,2013-05-24 12:37:00,
2013-05-24 13:42:00,57.6,37.0,30.12,NE,50,17.3,17.3,46,0.00,CLR,,0.00,WeatherDisplay:10.37,2013-05-24 12:42:00,
2013-05-24 13:47:00,57.9,37.2,30.11,NNE,13,6.0,6.0,46,0.00,CLR,,0.00,WeatherDisplay:10.37,2013-05-24 12:47:00,
2013-05-24 13:52:00,58.4,36.0,30.11,East,96,11.5,11.5,43,0.00,CLR,,0.00,WeatherDisplay:10.37,2013-05-24 12:52:00,
2013-05-24 13:57:00,57.8,37.1,30.11,ENE,72,13.8,13.8,46,0.00,CLR,,0.00,WeatherDisplay:10.37,2013-05-24 12:57:00,
2013-05-24 14:02:00,58.1,35.1,30.11,East,95,11.5,11.5,42,0.00,CLR,,0.00,WeatherDisplay:10.37,2013-05-24 13:02:00,
2013-05-24 14:07:00,58.2,37.5,30.11,ENE,74,9.2,9.2,46,0.00,CLR,,0.00,WeatherDisplay:10.37,2013-05-24 13:07:00,
2013-05-24 14:12:00,58.5,37.2,30.12,ENE,75,11.0,11.0,45,0.00,CLR,,0.00,WeatherDisplay:10.37,2013-05-24 13:12:00,
2013-05-24 14:17:00,58.5,36.1,30.12,NE,54,11.5,11.5,43,0.00,CLR,,0.00,WeatherDisplay:10.37,2013-05-24 13:17:00,
2013-05-24 14:22:00,58.6,36.2,30.12,ENE,57,12.7,12.7,43,0.00,CLR,,0.00,WeatherDisplay:10.37,2013-05-24 13:22:00,
2013-05-24 14:27:00,58.2,35.8,30.12,NE,47,13.8,13.8,43,0.00,CLR,,0.00,WeatherDisplay:10.37,2013-05-24 13:27:00,
2013-05-24 14:32:00,58.8,36.9,30.12,North,359,9.2,9.2,44,0.00,CLR,,0.00,WeatherDisplay:10.37,2013-05-24 13:32:00,
2013-05-24 14:37:00,58.9,36.4,30.12,North,6,17.3,17.3,43,0.00,CLR,,0.00,WeatherDisplay:10.37,2013-05-24 13:37:00,
2013-05-24 14:42:00,59.1,36.0,30.12,NNE,18,11.0,11.0,42,0.00,CLR,,0.00,WeatherDisplay:10.37,2013-05-24 13:42:00,
2013-05-24 14:47:00,58.8,35.1,30.12,NW,311,11.5,11.5,41,0.00,CLR,,0.00,WeatherDisplay:10.37,2013-05-24 13:47:00,
2013-05-24 14:52:00,58.4,36.6,30.12,ENE,57,18.4,18.4,44,0.00,CLR,,0.00,WeatherDisplay:10.37,2013-05-24 13:52:00,
2013-05-24 14:57:00,58.7,37.4,30.12,ENE,58,9.2,10.1,45,0.00,CLR,,0.00,WeatherDisplay:10.37,2013-05-24 13:57:00,
2013-05-24 15:02:00,58.9,36.4,30.13,NE,46,10.4,10.4,43,0.00,CLR,,0.00,WeatherDisplay:10.37,2013-05-24 14:02:00,
2013-05-24 15:07:00,59.0,36.5,30.13,North,3,10.4,10.4,43,0.00,CLR,,0.00,WeatherDisplay:10.37,2013-05-24 14:07:00,
2013-05-24 15:12:00,58.8,35.7,30.13,ENE,78,16.1,16.1,42,0.00,CLR,,0.00,WeatherDisplay:10.37,2013-05-24 14:12:00,
2013-05-24 15:17:00,58.9,35.2,30.13,SE,137,12.7,12.7,41,0.00,CLR,,0.00,WeatherDisplay:10.37,2013-05-24 14:17:00,
2013-05-24 15:22:00,58.9,35.2,30.13,NNE,18,13.8,13.8,41,0.00,CLR,,0.00,WeatherDisplay:10.37,2013-05-24 14:22:00,
2013-05-24 15:27:00,59.6,35.9,30.13,North,3,12.7,12.7,41,0.00,CLR,,0.00,WeatherDisplay:10.37,2013-05-24 14:27:00,
2013-05-24 15:32:00,59.5,35.8,30.13,ENE,73,16.1,16.1,41,0.00,CLR,,0.00,WeatherDisplay:10.37,2013-05-24 14:32:00,
2013-05-24 15:37:00,59.2,36.1,30.14,ENE,77,15.0,15.0,42,0.00,CLR,,0.00,WeatherDisplay:10.37,2013-05-24 14:37:00,
2013-05-24 15:42:00,59.0,36.5,30.14,NE,47,15.0,15.0,43,0.00,CLR,,0.00,WeatherDisplay:10.37,2013-05-24 14:42:00,
2013-05-24 15:47:00,59.1,36.6,30.14,East,81,11.5,11.5,43,0.00,CLR,,0.00,WeatherDisplay:10.37,2013-05-24 14:47:00,
2013-05-24 15:52:00,59.4,36.9,30.14,ENE,73,15.0,15.0,43,0.00,CLR,,0.00,WeatherDisplay:10.37,2013-05-24 14:52:00,
2013-05-24 15:57:00,59.4,36.9,30.14,East,96,10.0,10.0,43,0.00,CLR,,0.00,WeatherDisplay:10.37,2013-05-24 14:57:00,
2013-05-24 16:02:00,59.6,36.5,30.14,ENE,75,11.5,11.5,42,0.00,CLR,,0.00,WeatherDisplay:10.37,2013-05-24 15:02:00,
2013-05-24 16:07:00,59.3,36.2,30.14,ENE,67,13.0,13.0,42,0.00,CLR,,0.00,WeatherDisplay:10.37,2013-05-24 15:07:00,
2013-05-24 16:12:00,58.7,35.7,30.14,East,96,13.8,13.8,42,0.00,CLR,,0.00,WeatherDisplay:10.37,2013-05-24 15:12:00,
2013-05-24 16:17:00,58.7,36.8,30.15,ENE,77,15.0,15.0,44,0.00,CLR,,0.00,WeatherDisplay:10.37,2013-05-24 15:17:00,
2013-05-24 16:22:00,58.7,36.8,30.15,ENE,58,12.7,12.7,44,0.00,CLR,,0.00,WeatherDisplay:10.37,2013-05-24 15:22:00,
2013-05-24 16:27:00,59.1,37.2,30.14,ENE,77,12.7,12.7,44,0.00,CLR,,0.00,WeatherDisplay:10.37,2013-05-24 15:27:00,
2013-05-24 16:32:00,59.3,35.6,30.15,NE,40,12.7,12.7,41,0.00,CLR,,0.00,WeatherDisplay:10.37,2013-05-24 15:32:00,
2013-05-24 16:37:00,59.0,35.9,30.15,East,81,14.0,14.0,42,0.00,CLR,,0.00,WeatherDisplay:10.37,2013-05-24 15:37:00,
2013-05-24 16:42:00,59.0,36.5,30.14,East,79,15.0,15.0,43,0.00,CLR,,0.00,WeatherDisplay:10.37,2013-05-24 15:42:00,
2013-05-24 16:47:00,59.1,37.8,30.15,ENE,58,13.8,13.8,45,0.00,CLR,,0.00,WeatherDisplay:10.37,2013-05-24 15:47:00,
2013-05-24 16:52:00,59.2,36.7,30.15,ENE,60,13.8,13.8,43,0.00,CLR,,0.00,WeatherDisplay:10.37,2013-05-24 15:52:00,
2013-05-24 16:57:00,59.2,36.7,30.15,ENE,61,17.0,17.0,43,0.00,CLR,,0.00,WeatherDisplay:10.37,2013-05-24 15:57:00,
2013-05-24 17:02:00,59.5,36.4,30.15,NNE,13,9.2,9.2,42,0.00,CLR,,0.00,WeatherDisplay:10.37,2013-05-24 16:02:00,
2013-05-24 17:07:00,59.8,37.2,30.15,ENE,59,11.5,11.5,43,0.00,CLR,,0.00,WeatherDisplay:10.37,2013-05-24 16:07:00,
2013-05-24 17:12:00,59.3,36.8,30.15,ENE,75,13.8,13.8,43,0.00,CLR,,0.00,WeatherDisplay:10.37,2013-05-24 16:12:00,
2013-05-24 17:17:00,59.2,37.9,30.15,NNE,15,11.5,11.5,45,0.00,CLR,,0.00,WeatherDisplay:10.37,2013-05-24 16:17:00,
2013-05-24 17:22:00,59.8,37.2,30.15,NE,43,8.1,8.1,43,0.00,CLR,,0.00,WeatherDisplay:10.37,2013-05-24 16:22:00,
2013-05-24 17:27:00,59.3,36.8,30.16,NE,56,9.2,9.2,43,0.00,CLR,,0.00,WeatherDisplay:10.37,2013-05-24 16:27:00,
2013-05-24 17:32:00,59.0,36.5,30.15,NE,53,6.9,6.9,43,0.00,CLR,,0.00,WeatherDisplay:10.37,2013-05-24 16:32:00,
2013-05-24 17:37:00,59.1,36.6,30.16,ENE,65,9.2,9.2,43,0.00,CLR,,0.00,WeatherDisplay:10.37,2013-05-24 16:37:00,
2013-05-24 17:42:00,58.9,38.7,30.16,ENE,63,11.5,11.5,47,0.00,CLR,,0.00,WeatherDisplay:10.37,2013-05-24 16:42:00,
2013-05-24 17:47:00,59.4,37.5,30.16,East,85,11.5,11.5,44,0.00,CLR,,0.00,WeatherDisplay:10.37,2013-05-24 16:47:00,
2013-05-24 17:52:00,59.0,36.5,30.16,East,100,11.5,11.5,43,0.00,CLR,,0.00,WeatherDisplay:10.37,2013-05-24 16:52:00,
2013-05-24 17:57:00,58.9,37.0,30.16,East,81,13.8,13.8,44,0.00,CLR,,0.00,WeatherDisplay:10.37,2013-05-24 16:57:00,
2013-05-24 18:02:00,59.0,37.7,30.16,ENE,68,12.7,12.7,45,0.00,CLR,,0.00,WeatherDisplay:10.37,2013-05-24 17:02:00,
2013-05-24 18:07:00,59.0,37.7,30.16,NE,51,11.0,11.0,45,0.00,CLR,,0.00,WeatherDisplay:10.37,2013-05-24 17:07:00,
2013-05-24 18:12:00,58.7,37.4,30.16,East,89,11.5,11.5,45,0.00,CLR,,0.00,WeatherDisplay:10.37,2013-05-24 17:12:00,
2013-05-24 18:17:00,58.2,37.5,30.16,East,89,6.9,6.9,46,0.00,CLR,,0.00,WeatherDisplay:10.37,2013-05-24 17:17:00,
2013-05-24 18:22:00,58.3,39.7,30.17,ESE,111,15.0,15.0,50,0.00,CLR,,0.00,WeatherDisplay:10.37,2013-05-24 17:22:00,
2013-05-24 18:27:00,57.2,41.6,30.17,ESE,103,13.8,13.8,56,0.00,CLR,,0.00,WeatherDisplay:10.37,2013-05-24 17:27:00,
2013-05-24 18:32:00,56.4,40.4,30.16,ESE,103,10.4,10.4,55,0.00,CLR,,0.00,WeatherDisplay:10.37,2013-05-24 17:32:00,
2013-05-24 18:37:00,57.1,41.5,30.17,SE,143,9.2,9.2,56,0.00,CLR,,0.00,WeatherDisplay:10.37,2013-05-24 17:37:00,
2013-05-24 18:42:00,56.6,41.1,30.17,ESE,112,11.5,11.5,56,0.00,CLR,,0.00,WeatherDisplay:10.37,2013-05-24 17:42:00,
2013-05-24 18:47:00,56.4,43.5,30.17,ESE,110,10.4,10.4,62,0.00,CLR,,0.00,WeatherDisplay:10.37,2013-05-24 17:47:00,
2013-05-24 18:52:00,55.9,43.9,30.17,East,100,10.4,10.4,64,0.00,CLR,,0.00,WeatherDisplay:10.37,2013-05-24 17:52:00,
2013-05-24 18:57:00,55.7,42.9,30.17,East,89,6.0,6.0,62,0.00,CLR,,0.00,WeatherDisplay:10.37,2013-05-24 17:57:00,
2013-05-24 19:02:00,56.1,42.8,30.17,ESE,103,11.5,11.5,61,0.00,CLR,,0.00,WeatherDisplay:10.37,2013-05-24 18:02:00,
2013-05-24 19:07:00,56.0,42.3,30.17,ESE,102,11.5,11.5,60,0.00,CLR,,0.00,WeatherDisplay:10.37,2013-05-24 18:07:00,
2013-05-24 19:12:00,55.7,42.5,30.17,ESE,117,11.5,11.5,61,0.00,CLR,,0.00,WeatherDisplay:10.37,2013-05-24 18:12:00,
2013-05-24 19:17:00,55.5,43.1,30.17,SE,136,10.4,10.4,63,0.00,CLR,,0.00,WeatherDisplay:10.37,2013-05-24 18:17:00,
2013-05-24 19:22:00,55.4,43.0,30.17,East,98,10.4,10.4,63,0.00,CLR,,0.00,WeatherDisplay:10.37,2013-05-24 18:22:00,
2013-05-24 19:27:00,55.5,43.1,30.18,ESE,106,9.2,9.2,63,0.00,CLR,,0.00,WeatherDisplay:10.37,2013-05-24 18:27:00,
2013-05-24 19:32:00,55.4,44.2,30.18,ESE,112,7.0,7.0,66,0.00,CLR,,0.00,WeatherDisplay:10.37,2013-05-24 18:32:00,
2013-05-24 19:37:00,55.3,42.5,30.18,ESE,106,10.4,10.4,62,0.00,CLR,,0.00,WeatherDisplay:10.37,2013-05-24 18:37:00,
2013-05-24 19:42:00,55.5,42.3,30.18,ESE,108,10.4,10.4,61,0.00,CLR,,0.00,WeatherDisplay:10.37,2013-05-24 18:42:00,
2013-05-24 19:47:00,55.4,42.6,30.18,ESE,117,8.1,8.1,62,0.00,CLR,,0.00,WeatherDisplay:10.37,2013-05-24 18:47:00,
2013-05-24 19:52:00,55.2,43.2,30.18,ESE,103,9.2,9.2,64,0.00,CLR,,0.00,WeatherDisplay:10.37,2013-05-24 18:52:00,
2013-05-24 19:57:00,55.2,41.5,30.18,ESE,106,10.4,10.4,60,0.00,CLR,,0.00,WeatherDisplay:10.37,2013-05-24 18:57:00,
2013-05-24 20:02:00,55.3,42.5,30.18,ESE,105,10.4,10.4,62,0.00,CLR,,0.00,WeatherDisplay:10.37,2013-05-24 19:02:00,
2013-05-24 20:07:00,55.3,42.5,30.18,East,100,9.2,9.2,62,0.00,CLR,,0.00,WeatherDisplay:10.37,2013-05-24 19:07:00,
2013-05-24 20:12:00,55.3,42.5,30.18,ESE,112,7.0,7.0,62,0.00,CLR,,0.00,WeatherDisplay:10.37,2013-05-24 19:12:00,
2013-05-24 20:17:00,55.0,42.6,30.18,ESE,103,6.9,6.9,63,0.00,CLR,,0.00,WeatherDisplay:10.37,2013-05-24 19:17:00,
2013-05-24 20:22:00,54.7,44.0,30.19,SE,140,5.8,5.8,67,0.00,CLR,,0.00,WeatherDisplay:10.37,2013-05-24 19:22:00,
2013-05-24 20:27:00,54.4,43.7,30.19,ESE,103,4.6,4.6,67,0.00,CLR,,0.00,WeatherDisplay:10.37,2013-05-24 19:27:00,
2013-05-24 20:32:00,54.1,44.2,30.19,SE,124,4.0,4.0,69,0.00,CLR,,0.00,WeatherDisplay:10.37,2013-05-24 19:32:00,
2013-05-24 20:37:00,53.6,44.8,30.19,SE,145,2.3,2.3,72,0.00,CLR,,0.00,WeatherDisplay:10.37,2013-05-24 19:37:00,
2013-05-24 20:42:00,53.2,45.1,30.19,East,85,2.3,2.3,74,0.00,CLR,,0.00,WeatherDisplay:10.37,2013-05-24 19:42:00,
2013-05-24 20:47:00,53.0,44.9,30.19,East,99,3.5,3.5,74,0.00,CLR,,0.00,WeatherDisplay:10.37,2013-05-24 19:47:00,
2013-05-24 20:52:00,53.2,43.3,30.19,East,91,3.5,3.5,69,0.00,CLR,,0.00,WeatherDisplay:10.37,2013-05-24 19:52:00,
2013-05-24 20:57:00,53.6,43.3,30.20,ESE,106,3.5,3.5,68,0.00,CLR,,0.00,WeatherDisplay:10.37,2013-05-24 19:57:00,
2013-05-24 21:02:00,53.8,43.9,30.20,ESE,102,3.5,3.5,69,0.00,CLR,,0.00,WeatherDisplay:10.37,2013-05-24 20:02:00,
2013-05-24 21:07:00,53.7,44.5,30.20,SSW,201,2.3,2.3,71,0.00,CLR,,0.00,WeatherDisplay:10.37,2013-05-24 20:07:00,
2013-05-24 21:12:00,53.0,44.9,30.20,SSW,193,3.5,3.5,74,0.00,CLR,,0.00,WeatherDisplay:10.37,2013-05-24 20:12:00,
2013-05-24 21:17:00,52.7,44.3,30.20,South,175,3.5,3.5,73,0.00,CLR,,0.00,WeatherDisplay:10.37,2013-05-24 20:17:00,
2013-05-24 21:22:00,52.7,44.6,30.20,South,176,2.3,2.3,74,0.00,CLR,,0.00,WeatherDisplay:10.37,2013-05-24 20:22:00,
2013-05-24 21:27:00,52.4,45.1,30.21,South,176,1.2,0.0,76,0.00,CLR,,0.00,WeatherDisplay:10.37,2013-05-24 20:27:00,
2013-05-24 21:32:00,52.1,44.4,30.21,South,176,0.0,0.0,75,0.00,CLR,,0.00,WeatherDisplay:10.37,2013-05-24 20:32:00,
2013-05-24 21:38:00,51.9,44.2,30.21,South,176,0.0,0.0,75,0.00,CLR,,0.00,WeatherDisplay:10.37,2013-05-24 20:38:00,
2013-05-24 21:43:00,51.7,44.4,30.21,South,176,0.0,0.0,76,0.00,CLR,,0.00,WeatherDisplay:10.37,2013-05-24 20:43:00,
2013-05-24 21:48:00,51.3,43.6,30.21,South,176,0.0,0.0,75,0.00,CLR,,0.00,WeatherDisplay:10.37,2013-05-24 20:48:00,
2013-05-24 21:53:00,51.0,43.7,30.21,South,176,0.0,0.0,76,0.00,CLR,,0.00,WeatherDisplay:10.37,2013-05-24 20:53:00,
2013-05-24 21:58:00,50.7,43.1,30.21,South,176,1.2,1.2,75,0.00,CLR,,0.00,WeatherDisplay:10.37,2013-05-24 20:58:00,
2013-05-24 22:03:00,50.6,42.3,30.21,South,176,1.2,1.2,73,0.00,CLR,,0.00,WeatherDisplay:10.37,2013-05-24 21:03:00,
2013-05-24 22:08:00,50.4,42.8,30.21,South,176,1.0,1.0,75,0.00,CLR,,0.00,WeatherDisplay:10.37,2013-05-24 21:08:00,
2013-05-24 22:13:00,50.2,42.2,30.21,South,176,1.2,1.2,74,0.00,CLR,,0.00,WeatherDisplay:10.37,2013-05-24 21:13:00,
2013-05-24 22:18:00,50.1,43.2,30.21,South,181,1.2,0.0,77,0.00,CLR,,0.00,WeatherDisplay:10.37,2013-05-24 21:18:00,
2013-05-24 22:23:00,49.7,42.8,30.21,South,180,1.2,1.2,77,0.00,CLR,,0.00,WeatherDisplay:10.37,2013-05-24 21:23:00,
2013-05-24 22:28:00,49.3,42.7,30.21,South,181,0.0,0.0,78,0.00,CLR,,0.00,WeatherDisplay:10.37,2013-05-24 21:28:00,
2013-05-24 22:33:00,49.2,42.3,30.21,South,181,0.0,0.0,77,0.00,CLR,,0.00,WeatherDisplay:10.37,2013-05-24 21:33:00,
2013-05-24 22:38:00,49.1,42.2,30.21,South,181,1.2,1.2,77,0.00,CLR,,0.00,WeatherDisplay:10.37,2013-05-24 21:38:00,
2013-05-24 22:43:00,48.7,41.8,30.21,South,181,0.0,0.0,77,0.00,CLR,,0.00,WeatherDisplay:10.37,2013-05-24 21:43:00,
2013-05-24 22:48:00,48.4,41.9,30.21,South,181,0.0,0.0,78,0.00,CLR,,0.00,WeatherDisplay:10.37,2013-05-24 21:48:00,
2013-05-24 22:53:00,48.2,41.7,30.22,WNW,289,3.5,3.5,78,0.00,CLR,,0.00,WeatherDisplay:10.37,2013-05-24 21:53:00,
2013-05-24 22:58:00,48.3,41.4,30.21,WNW,288,0.0,0.0,77,0.00,CLR,,0.00,WeatherDisplay:10.37,2013-05-24 21:58:00,
2013-05-24 23:03:00,48.4,42.5,30.22,WNW,286,1.2,1.2,80,0.00,CLR,,0.00,WeatherDisplay:10.37,2013-05-24 22:03:00,
2013-05-24 23:08:00,48.2,42.3,30.22,WNW,287,1.2,1.2,80,0.00,CLR,,0.00,WeatherDisplay:10.37,2013-05-24 22:08:00,
2013-05-24 23:13:00,47.8,41.6,30.22,WNW,286,0.0,0.0,79,0.00,CLR,,0.00,WeatherDisplay:10.37,2013-05-24 22:13:00,
2013-05-24 23:18:00,47.5,41.3,30.22,WNW,288,1.2,0.0,79,0.00,CLR,,0.00,WeatherDisplay:10.37,2013-05-24 22:18:00,
2013-05-24 23:23:00,47.1,40.9,30.22,WNW,286,0.0,0.1,79,0.00,CLR,,0.00,WeatherDisplay:10.37,2013-05-24 22:23:00,
2013-05-24 23:28:00,47.1,41.2,30.22,WNW,286,0.0,0.0,80,0.00,CLR,,0.00,WeatherDisplay:10.37,2013-05-24 22:28:00,
2013-05-24 23:33:00,47.0,41.5,30.22,West,274,1.2,1.2,81,0.00,CLR,,0.00,WeatherDisplay:10.37,2013-05-24 22:33:00,
2013-05-24 23:38:00,47.0,41.8,30.22,West,274,0.0,0.0,82,0.00,CLR,,0.00,WeatherDisplay:10.37,2013-05-24 22:38:00,
2013-05-24 23:43:00,46.7,41.5,30.22,WNW,287,2.3,2.3,82,0.00,CLR,,0.00,WeatherDisplay:10.37,2013-05-24 22:43:00,
2013-05-24 23:48:00,46.3,40.8,30.22,WNW,287,0.0,0.0,81,0.00,CLR,,0.00,WeatherDisplay:10.37,2013-05-24 22:48:00,
2013-05-24 23:53:00,46.4,41.5,30.22,WNW,286,0.0,0.0,83,0.00,CLR,,0.00,WeatherDisplay:10.37,2013-05-24 22:53:00,
2013-05-24 23:58:00,46.0,40.8,30.22,WNW,286,0.0,0.0,82,0.00,CLR,,0.00,WeatherDisplay:10.37,2013-05-24 22:58:00,